,,PressureMeas_1m,,PRMeasQMR101_1,,RHStat155_1m_1,,SRMeasQMS101R_1m,,TAStat155_1m_1,,GenWind_1,,GenWind_1,
2018-04-29, 00:00:06,VALID,919.365,VALID,0.0,VALID,95.332,VALID,0.032,VALID,19.634,INVALID,360.0,VALID,0.0,
2018-04-29, 00:01:06,VALID,919.354,VALID,0.0,VALID,95.083,VALID,0.023,VALID,19.638,INVALID,360.0,VALID,0.0,
2018-04-29, 00:02:06,VALID,919.35,VALID,0.0,VALID,95.534,VALID,0.029,VALID,19.686,INVALID,360.0,VALID,0.0,
2018-04-29, 00:03:06,VALID,919.356,VALID,0.0,VALID,96.005,VALID,0.023,VALID,19.757,INVALID,360.0,VALID,0.0,
2018-04-29, 00:04:06,VALID,919.357,VALID,0.0,VALID,96.202,VALID,0.024,VALID,19.791,INVALID,360.0,VALID,0.0,
2018-04-29, 00:05:06,VALID,919.365,VALID,0.0,VALID,96.106,VALID,0.03,VALID,19.774,INVALID,360.0,VALID,0.0,
2018-04-29, 00:06:06,VALID,919.364,VALID,0.0,VALID,96.101,VALID,0.032,VALID,19.778,INVALID,360.0,VALID,0.0,
2018-04-29, 00:07:06,VALID,919.361,VALID,0.0,VALID,96.294,VALID,0.02,VALID,19.793,INVALID,360.0,VALID,0.0,
2018-04-29, 00:08:06,VALID,919.361,VALID,0.0,VALID,96.159,VALID,0.006,VALID,19.786,INVALID,360.0,VALID,0.0,
2018-04-29, 00:09:06,VALID,919.36,VALID,0.0,VALID,96.098,VALID,0.002,VALID,19.794,INVALID,360.0,VALID,0.0,
2018-04-29, 00:10:06,VALID,919.358,VALID,0.0,VALID,95.521,VALID,0.034,VALID,19.83,INVALID,360.0,VALID,0.0,
2018-04-29, 00:11:06,VALID,919.354,VALID,0.0,VALID,95.32,VALID,0.019,VALID,19.878,INVALID,360.0,VALID,0.0,
2018-04-29, 00:12:06,VALID,919.339,VALID,0.0,VALID,95.052,VALID,0.013,VALID,19.929,INVALID,360.0,VALID,0.0,
2018-04-29, 00:13:06,VALID,919.315,VALID,0.0,VALID,95.371,VALID,0.04,VALID,20.002,INVALID,360.0,VALID,0.0,
2018-04-29, 00:14:06,VALID,919.275,VALID,0.0,VALID,95.356,VALID,0.043,VALID,20.041,INVALID,360.0,VALID,0.0,
2018-04-29, 00:15:06,VALID,919.254,VALID,0.0,VALID,95.368,VALID,0.029,VALID,20.096,INVALID,360.0,VALID,0.0,
2018-04-29, 00:16:06,VALID,919.226,VALID,0.0,VALID,95.701,VALID,0.029,VALID,20.175,INVALID,360.0,VALID,0.0,
2018-04-29, 00:17:06,VALID,919.205,VALID,0.0,VALID,95.321,VALID,-0.002,VALID,20.213,INVALID,360.0,VALID,0.0,
2018-04-29, 00:18:06,VALID,919.201,VALID,0.0,VALID,93.792,VALID,-0.029,VALID,20.082,INVALID,360.0,VALID,0.0,
2018-04-29, 00:19:06,VALID,919.193,VALID,0.0,VALID,93.417,VALID,-0.011,VALID,19.907,INVALID,360.0,VALID,0.0,
2018-04-29, 00:20:06,VALID,919.184,VALID,0.0,VALID,94.269,VALID,-0.001,VALID,19.801,INVALID,360.0,VALID,0.0,
2018-04-29, 00:21:06,VALID,919.187,VALID,0.0,VALID,94.388,VALID,-0.014,VALID,19.71,INVALID,360.0,VALID,0.0,
2018-04-29, 00:22:06,VALID,919.182,VALID,0.0,VALID,94.815,VALID,-0.019,VALID,19.676,INVALID,360.0,VALID,0.0,
2018-04-29, 00:23:06,VALID,919.175,VALID,0.0,VALID,95.226,VALID,-0.018,VALID,19.661,INVALID,360.0,VALID,0.0,
2018-04-29, 00:24:06,VALID,919.158,VALID,0.0,VALID,95.304,VALID,-0.003,VALID,19.64,INVALID,360.0,VALID,0.0,
2018-04-29, 00:25:06,VALID,919.146,VALID,0.0,VALID,95.552,VALID,0.009,VALID,19.624,INVALID,360.0,VALID,0.0,
2018-04-29, 00:26:06,VALID,919.119,VALID,0.0,VALID,96.011,VALID,0.008,VALID,19.624,INVALID,360.0,VALID,0.0,
2018-04-29, 00:27:06,VALID,919.111,VALID,0.0,VALID,95.935,VALID,0.001,VALID,19.585,INVALID,360.0,VALID,0.0,
2018-04-29, 00:28:06,VALID,919.104,VALID,0.0,VALID,96.47,VALID,0.006,VALID,19.608,INVALID,360.0,VALID,0.0,
2018-04-29, 00:29:06,VALID,919.097,VALID,0.0,VALID,96.502,VALID,-0.011,VALID,19.588,INVALID,360.0,VALID,0.0,
2018-04-29, 00:30:06,VALID,919.102,VALID,0.0,VALID,96.628,VALID,-0.01,VALID,19.612,INVALID,360.0,VALID,0.0,
2018-04-29, 00:31:06,VALID,919.095,VALID,0.0,VALID,96.747,VALID,-0.011,VALID,19.623,INVALID,360.0,VALID,0.0,
2018-04-29, 00:32:06,VALID,919.092,VALID,0.0,VALID,96.807,VALID,0.005,VALID,19.614,INVALID,360.0,VALID,0.0,
2018-04-29, 00:33:06,VALID,919.076,VALID,0.0,VALID,97.056,VALID,0.002,VALID,19.625,INVALID,360.0,VALID,0.0,
2018-04-29, 00:34:06,VALID,919.066,VALID,0.0,VALID,97.088,VALID,0.008,VALID,19.589,INVALID,360.0,VALID,0.0,
2018-04-29, 00:35:06,VALID,919.045,VALID,0.0,VALID,96.911,VALID,0.025,VALID,19.537,INVALID,360.0,VALID,0.0,
2018-04-29, 00:36:06,VALID,919.025,VALID,0.0,VALID,96.986,VALID,0.024,VALID,19.535,INVALID,360.0,VALID,0.0,
2018-04-29, 00:37:06,VALID,919.018,VALID,0.0,VALID,97.177,VALID,0.028,VALID,19.526,INVALID,360.0,VALID,0.0,
2018-04-29, 00:38:06,VALID,919.001,VALID,0.0,VALID,97.139,VALID,0.01,VALID,19.506,INVALID,360.0,VALID,0.0,
2018-04-29, 00:39:06,VALID,918.986,VALID,0.0,VALID,96.984,VALID,0.016,VALID,19.475,INVALID,360.0,VALID,0.0,
2018-04-29, 00:40:06,VALID,918.97,VALID,0.0,VALID,97.036,VALID,0.019,VALID,19.483,INVALID,360.0,VALID,0.0,
2018-04-29, 00:41:06,VALID,918.966,VALID,0.0,VALID,97.261,VALID,0.015,VALID,19.507,INVALID,360.0,VALID,0.0,
2018-04-29, 00:42:06,VALID,918.951,VALID,0.0,VALID,97.405,VALID,0.013,VALID,19.514,INVALID,360.0,VALID,0.0,
2018-04-29, 00:43:06,VALID,918.937,VALID,0.0,VALID,97.505,VALID,0.008,VALID,19.523,INVALID,360.0,VALID,0.0,
2018-04-29, 00:44:06,VALID,918.922,VALID,0.0,VALID,97.599,VALID,-0.006,VALID,19.544,INVALID,360.0,VALID,0.0,
2018-04-29, 00:45:06,VALID,918.905,VALID,0.0,VALID,97.686,VALID,-0.012,VALID,19.582,INVALID,360.0,VALID,0.0,
2018-04-29, 00:46:06,VALID,918.891,VALID,0.0,VALID,97.68,VALID,0.007,VALID,19.607,INVALID,360.0,VALID,0.0,
2018-04-29, 00:47:06,VALID,918.886,VALID,0.0,VALID,97.697,VALID,-0.004,VALID,19.636,INVALID,360.0,VALID,0.0,
2018-04-29, 00:48:06,VALID,918.869,VALID,0.0,VALID,97.226,VALID,0.026,VALID,19.554,INVALID,360.0,VALID,0.0,
2018-04-29, 00:49:06,VALID,918.853,VALID,0.0,VALID,95.955,VALID,0.038,VALID,19.406,INVALID,360.0,VALID,0.0,
2018-04-29, 00:50:06,VALID,918.831,VALID,0.0,VALID,95.581,VALID,0.033,VALID,19.387,INVALID,360.0,VALID,0.0,
2018-04-29, 00:51:06,VALID,918.805,VALID,0.0,VALID,95.716,VALID,0.039,VALID,19.362,INVALID,360.0,VALID,0.0,
2018-04-29, 00:52:06,VALID,918.772,VALID,0.0,VALID,96.118,VALID,0.039,VALID,19.379,INVALID,360.0,VALID,0.0,
2018-04-29, 00:53:06,VALID,918.763,VALID,0.0,VALID,96.781,VALID,0.06,VALID,19.443,INVALID,360.0,VALID,0.0,
2018-04-29, 00:54:06,VALID,918.748,VALID,0.0,VALID,97.015,VALID,0.042,VALID,19.485,INVALID,360.0,VALID,0.0,
2018-04-29, 00:55:06,VALID,918.736,VALID,0.0,VALID,97.056,VALID,0.043,VALID,19.496,INVALID,360.0,VALID,0.0,
2018-04-29, 00:56:06,VALID,918.714,VALID,0.0,VALID,97.182,VALID,0.03,VALID,19.505,INVALID,360.0,VALID,0.0,
2018-04-29, 00:57:06,VALID,918.707,VALID,0.0,VALID,97.527,VALID,0.033,VALID,19.507,INVALID,360.0,VALID,0.0,
2018-04-29, 00:58:06,VALID,918.676,VALID,0.0,VALID,97.439,VALID,0.039,VALID,19.429,INVALID,360.0,VALID,0.0,
2018-04-29, 00:59:06,VALID,918.64,VALID,0.0,VALID,97.521,VALID,0.046,VALID,19.413,INVALID,360.0,VALID,0.0,
2018-04-29, 01:00:06,VALID,918.622,VALID,0.0,VALID,97.674,VALID,0.053,VALID,19.427,INVALID,360.0,VALID,0.0,
2018-04-29, 01:01:06,VALID,918.612,VALID,0.0,VALID,97.789,VALID,0.058,VALID,19.453,INVALID,360.0,VALID,0.0,
2018-04-29, 01:02:06,VALID,918.579,VALID,0.0,VALID,97.865,VALID,0.024,VALID,19.506,INVALID,360.0,VALID,0.0,
2018-04-29, 01:03:06,VALID,918.575,VALID,0.0,VALID,97.946,VALID,-0.004,VALID,19.579,INVALID,360.0,VALID,0.0,
2018-04-29, 01:04:06,VALID,918.574,VALID,0.0,VALID,98.01,VALID,-0.011,VALID,19.645,INVALID,360.0,VALID,0.0,
2018-04-29, 01:05:06,VALID,918.566,VALID,0.0,VALID,97.968,VALID,-0.015,VALID,19.681,INVALID,360.0,VALID,0.0,
2018-04-29, 01:06:06,VALID,918.571,VALID,0.0,VALID,97.167,VALID,-0.028,VALID,19.508,INVALID,360.0,VALID,0.0,
2018-04-29, 01:07:06,VALID,918.563,VALID,0.0,VALID,96.582,VALID,-0.034,VALID,19.409,INVALID,360.0,VALID,0.0,
2018-04-29, 01:08:06,VALID,918.555,VALID,0.0,VALID,97.224,VALID,-0.017,VALID,19.49,INVALID,360.0,VALID,0.0,
2018-04-29, 01:09:06,VALID,918.552,VALID,0.0,VALID,97.408,VALID,-0.02,VALID,19.495,INVALID,360.0,VALID,0.0,
2018-04-29, 01:10:06,VALID,918.534,VALID,0.0,VALID,97.227,VALID,-0.006,VALID,19.445,VALID,94.0,VALID,0.588,
2018-04-29, 01:11:06,VALID,918.528,VALID,0.0,VALID,97.066,VALID,-0.008,VALID,19.392,VALID,82.0,VALID,0.647,
2018-04-29, 01:12:06,VALID,918.52,VALID,0.0,VALID,96.969,VALID,-0.013,VALID,19.388,VALID,80.0,VALID,0.399,
2018-04-29, 01:13:06,VALID,918.518,VALID,0.0,VALID,97.287,VALID,-0.016,VALID,19.461,VALID,81.0,VALID,0.226,
2018-04-29, 01:14:06,VALID,918.51,VALID,0.0,VALID,97.457,VALID,-0.004,VALID,19.492,VALID,81.0,VALID,0.265,
2018-04-29, 01:15:06,VALID,918.494,VALID,0.0,VALID,97.682,VALID,-0.016,VALID,19.572,VALID,82.0,VALID,0.24,
2018-04-29, 01:16:06,VALID,918.474,VALID,0.0,VALID,97.76,VALID,-0.023,VALID,19.601,VALID,85.0,VALID,0.455,
2018-04-29, 01:17:06,VALID,918.45,VALID,0.0,VALID,97.751,VALID,-0.035,VALID,19.599,VALID,87.0,VALID,0.621,
2018-04-29, 01:18:06,VALID,918.419,VALID,0.0,VALID,97.593,VALID,-0.065,VALID,19.569,VALID,88.0,VALID,0.614,
2018-04-29, 01:19:06,VALID,918.4,VALID,0.0,VALID,97.571,VALID,-0.058,VALID,19.564,VALID,89.0,VALID,0.55,
2018-04-29, 01:20:06,VALID,918.396,VALID,0.0,VALID,97.616,VALID,-0.048,VALID,19.569,VALID,89.0,VALID,0.436,
2018-04-29, 01:21:06,VALID,918.391,VALID,0.0,VALID,97.518,VALID,-0.064,VALID,19.554,VALID,88.0,VALID,0.204,
2018-04-29, 01:22:06,VALID,918.382,VALID,0.0,VALID,97.505,VALID,-0.059,VALID,19.576,INVALID,360.0,VALID,0.027,
2018-04-29, 01:23:06,VALID,918.37,VALID,0.0,VALID,97.627,VALID,-0.052,VALID,19.615,INVALID,360.0,VALID,0.0,
2018-04-29, 01:24:06,VALID,918.361,VALID,0.0,VALID,97.745,VALID,-0.063,VALID,19.64,INVALID,360.0,VALID,0.0,
2018-04-29, 01:25:06,VALID,918.349,VALID,0.0,VALID,97.742,VALID,-0.054,VALID,19.644,INVALID,360.0,VALID,0.0,
2018-04-29, 01:26:06,VALID,918.328,VALID,0.0,VALID,97.636,VALID,-0.062,VALID,19.618,INVALID,360.0,VALID,0.0,
2018-04-29, 01:27:06,VALID,918.319,VALID,0.0,VALID,97.515,VALID,-0.052,VALID,19.596,INVALID,360.0,VALID,0.0,
2018-04-29, 01:28:06,VALID,918.319,VALID,0.0,VALID,97.493,VALID,-0.053,VALID,19.592,INVALID,360.0,VALID,0.0,
2018-04-29, 01:29:06,VALID,918.303,VALID,0.0,VALID,97.585,VALID,-0.047,VALID,19.591,INVALID,360.0,VALID,0.0,
2018-04-29, 01:30:06,VALID,918.304,VALID,0.0,VALID,97.552,VALID,-0.054,VALID,19.557,INVALID,360.0,VALID,0.0,
2018-04-29, 01:31:06,VALID,918.296,VALID,0.0,VALID,97.472,VALID,-0.047,VALID,19.51,INVALID,360.0,VALID,0.0,
2018-04-29, 01:32:06,VALID,918.265,VALID,0.0,VALID,97.388,VALID,-0.02,VALID,19.451,INVALID,360.0,VALID,0.0,
2018-04-29, 01:33:06,VALID,918.242,VALID,0.0,VALID,97.104,VALID,0.057,VALID,19.354,INVALID,360.0,VALID,0.0,
2018-04-29, 01:34:06,VALID,918.223,VALID,0.0,VALID,97.118,VALID,0.061,VALID,19.31,INVALID,360.0,VALID,0.0,
2018-04-29, 01:35:06,VALID,918.193,VALID,0.0,VALID,97.288,VALID,0.071,VALID,19.283,INVALID,360.0,VALID,0.0,
2018-04-29, 01:36:06,VALID,918.184,VALID,0.0,VALID,97.251,VALID,0.065,VALID,19.232,INVALID,360.0,VALID,0.0,
2018-04-29, 01:37:06,VALID,918.173,VALID,0.0,VALID,97.213,VALID,0.077,VALID,19.196,INVALID,360.0,VALID,0.0,
2018-04-29, 01:38:06,VALID,918.174,VALID,0.0,VALID,97.2,VALID,0.068,VALID,19.191,INVALID,360.0,VALID,0.0,
2018-04-29, 01:39:06,VALID,918.157,VALID,0.0,VALID,97.217,VALID,0.068,VALID,19.201,INVALID,360.0,VALID,0.0,
2018-04-29, 01:40:06,VALID,918.15,VALID,0.0,VALID,97.35,VALID,0.073,VALID,19.228,INVALID,360.0,VALID,0.0,
2018-04-29, 01:41:06,VALID,918.131,VALID,0.0,VALID,97.516,VALID,0.071,VALID,19.232,INVALID,360.0,VALID,0.0,
2018-04-29, 01:42:06,VALID,918.122,VALID,0.0,VALID,97.628,VALID,0.063,VALID,19.202,INVALID,360.0,VALID,0.0,
2018-04-29, 01:43:06,VALID,918.124,VALID,0.0,VALID,97.187,VALID,0.055,VALID,19.086,INVALID,360.0,VALID,0.0,
2018-04-29, 01:44:06,VALID,918.107,VALID,0.0,VALID,97.311,VALID,0.055,VALID,19.086,INVALID,360.0,VALID,0.18,
2018-04-29, 01:45:06,VALID,918.098,VALID,0.0,VALID,97.081,VALID,0.043,VALID,19.007,VALID,115.0,VALID,0.186,
2018-04-29, 01:46:06,VALID,918.075,VALID,0.0,VALID,96.619,VALID,0.038,VALID,18.903,VALID,114.0,VALID,0.232,
2018-04-29, 01:47:06,VALID,918.054,VALID,0.0,VALID,95.921,VALID,0.056,VALID,18.801,INVALID,360.0,VALID,0.086,
2018-04-29, 01:48:06,VALID,918.036,VALID,0.0,VALID,96.317,VALID,0.043,VALID,18.834,INVALID,360.0,VALID,0.0,
2018-04-29, 01:49:06,VALID,918.029,VALID,0.0,VALID,96.912,VALID,0.029,VALID,18.851,INVALID,360.0,VALID,0.0,
2018-04-29, 01:50:06,VALID,918.026,VALID,0.0,VALID,97.547,VALID,0.047,VALID,19.003,INVALID,360.0,VALID,0.0,
2018-04-29, 01:51:06,VALID,918.02,VALID,0.0,VALID,98.4,VALID,0.045,VALID,19.29,INVALID,360.0,VALID,0.0,
2018-04-29, 01:52:06,VALID,918.007,VALID,0.0,VALID,98.531,VALID,0.014,VALID,19.405,INVALID,360.0,VALID,0.0,
2018-04-29, 01:53:06,VALID,917.983,VALID,0.0,VALID,98.493,VALID,0.041,VALID,19.421,INVALID,360.0,VALID,0.0,
2018-04-29, 01:54:06,VALID,917.968,VALID,0.0,VALID,98.482,VALID,0.037,VALID,19.411,INVALID,360.0,VALID,0.0,
2018-04-29, 01:55:06,VALID,917.931,VALID,0.0,VALID,98.463,VALID,0.028,VALID,19.397,INVALID,360.0,VALID,0.0,
2018-04-29, 01:56:06,VALID,917.921,VALID,0.0,VALID,98.449,VALID,0.033,VALID,19.383,INVALID,360.0,VALID,0.0,
2018-04-29, 01:57:06,VALID,917.92,VALID,0.0,VALID,98.473,VALID,0.025,VALID,19.39,INVALID,360.0,VALID,0.0,
2018-04-29, 01:58:06,VALID,917.917,VALID,0.0,VALID,98.426,VALID,0.021,VALID,19.358,INVALID,360.0,VALID,0.0,
2018-04-29, 01:59:06,VALID,917.923,VALID,0.0,VALID,98.376,VALID,0.017,VALID,19.324,INVALID,360.0,VALID,0.0,
2018-04-29, 02:00:06,VALID,917.927,VALID,0.0,VALID,98.258,VALID,0.019,VALID,19.28,INVALID,360.0,VALID,0.0,
2018-04-29, 02:01:06,VALID,917.894,VALID,0.0,VALID,98.031,VALID,0.034,VALID,19.192,INVALID,360.0,VALID,0.0,
2018-04-29, 02:02:06,VALID,917.871,VALID,0.0,VALID,97.928,VALID,0.011,VALID,19.18,INVALID,360.0,VALID,0.0,
2018-04-29, 02:03:06,VALID,917.839,VALID,0.0,VALID,98.01,VALID,-0.004,VALID,19.211,INVALID,360.0,VALID,0.0,
2018-04-29, 02:04:06,VALID,917.826,VALID,0.0,VALID,98.025,VALID,-0.011,VALID,19.24,INVALID,360.0,VALID,0.0,
2018-04-29, 02:05:06,VALID,917.819,VALID,0.0,VALID,98.093,VALID,-0.006,VALID,19.262,INVALID,360.0,VALID,0.0,
2018-04-29, 02:06:06,VALID,917.829,VALID,0.0,VALID,98.072,VALID,0.007,VALID,19.241,INVALID,360.0,VALID,0.0,
2018-04-29, 02:07:06,VALID,917.829,VALID,0.0,VALID,98.122,VALID,0.014,VALID,19.264,INVALID,360.0,VALID,0.0,
2018-04-29, 02:08:06,VALID,917.822,VALID,0.0,VALID,98.099,VALID,0.014,VALID,19.273,INVALID,360.0,VALID,0.0,
2018-04-29, 02:09:06,VALID,917.812,VALID,0.0,VALID,98.058,VALID,0.012,VALID,19.272,INVALID,360.0,VALID,0.0,
2018-04-29, 02:10:06,VALID,917.814,VALID,0.0,VALID,98.127,VALID,0.0,VALID,19.295,INVALID,360.0,VALID,0.0,
2018-04-29, 02:11:06,VALID,917.804,VALID,0.0,VALID,98.076,VALID,-0.001,VALID,19.292,INVALID,360.0,VALID,0.0,
2018-04-29, 02:12:06,VALID,917.821,VALID,0.0,VALID,98.159,VALID,-0.002,VALID,19.337,INVALID,360.0,VALID,0.0,
2018-04-29, 02:13:06,VALID,917.814,VALID,0.0,VALID,98.217,VALID,0.003,VALID,19.372,INVALID,360.0,VALID,0.0,
2018-04-29, 02:14:06,VALID,917.809,VALID,0.0,VALID,98.161,VALID,-0.008,VALID,19.359,INVALID,360.0,VALID,0.0,
2018-04-29, 02:15:06,VALID,917.797,VALID,0.0,VALID,98.149,VALID,0.01,VALID,19.37,INVALID,360.0,VALID,0.0,
2018-04-29, 02:16:06,VALID,917.782,VALID,0.0,VALID,98.125,VALID,0.008,VALID,19.381,INVALID,360.0,VALID,0.0,
2018-04-29, 02:17:06,VALID,917.767,VALID,0.0,VALID,98.189,VALID,0.003,VALID,19.412,INVALID,360.0,VALID,0.0,
2018-04-29, 02:18:06,VALID,917.767,VALID,0.0,VALID,98.102,VALID,-0.022,VALID,19.39,INVALID,360.0,VALID,0.0,
2018-04-29, 02:19:06,VALID,917.762,VALID,0.0,VALID,98.01,VALID,-0.023,VALID,19.352,INVALID,360.0,VALID,0.0,
2018-04-29, 02:20:06,VALID,917.774,VALID,0.0,VALID,97.743,VALID,-0.036,VALID,19.25,INVALID,360.0,VALID,0.0,
2018-04-29, 02:21:06,VALID,917.78,VALID,0.0,VALID,97.59,VALID,-0.034,VALID,19.195,INVALID,360.0,VALID,0.0,
2018-04-29, 02:22:06,VALID,917.792,VALID,0.0,VALID,97.703,VALID,-0.029,VALID,19.216,INVALID,360.0,VALID,0.283,
2018-04-29, 02:23:06,VALID,917.801,VALID,0.0,VALID,97.753,VALID,-0.04,VALID,19.241,VALID,85.0,VALID,0.983,
2018-04-29, 02:24:06,VALID,917.802,VALID,0.0,VALID,97.861,VALID,-0.028,VALID,19.284,VALID,85.0,VALID,1.112,
2018-04-29, 02:25:06,VALID,917.797,VALID,0.0,VALID,97.737,VALID,-0.035,VALID,19.286,VALID,86.0,VALID,1.093,
2018-04-29, 02:26:06,VALID,917.783,VALID,0.0,VALID,97.683,VALID,-0.029,VALID,19.291,VALID,84.0,VALID,1.031,
2018-04-29, 02:27:06,VALID,917.776,VALID,0.0,VALID,97.612,VALID,-0.038,VALID,19.306,VALID,77.0,VALID,0.869,
2018-04-29, 02:28:06,VALID,917.782,VALID,0.0,VALID,97.612,VALID,-0.036,VALID,19.347,VALID,76.0,VALID,0.736,
2018-04-29, 02:29:06,VALID,917.782,VALID,0.0,VALID,97.661,VALID,-0.034,VALID,19.382,VALID,71.0,VALID,0.534,
2018-04-29, 02:30:06,VALID,917.778,VALID,0.0,VALID,97.704,VALID,-0.046,VALID,19.434,VALID,76.0,VALID,0.499,
2018-04-29, 02:31:06,VALID,917.774,VALID,0.0,VALID,97.751,VALID,-0.033,VALID,19.463,VALID,81.0,VALID,0.748,
2018-04-29, 02:32:06,VALID,917.764,VALID,0.0,VALID,97.718,VALID,-0.023,VALID,19.455,VALID,83.0,VALID,0.87,
2018-04-29, 02:33:06,VALID,917.748,VALID,0.0,VALID,97.639,VALID,0.0,VALID,19.423,VALID,84.0,VALID,0.839,
2018-04-29, 02:34:06,VALID,917.745,VALID,0.0,VALID,97.631,VALID,-0.018,VALID,19.397,VALID,88.0,VALID,0.859,
2018-04-29, 02:35:06,VALID,917.753,VALID,0.0,VALID,97.544,VALID,-0.02,VALID,19.341,VALID,87.0,VALID,0.727,
2018-04-29, 02:36:06,VALID,917.753,VALID,0.0,VALID,97.412,VALID,-0.017,VALID,19.298,VALID,82.0,VALID,0.67,
2018-04-29, 02:37:06,VALID,917.76,VALID,0.0,VALID,97.677,VALID,-0.028,VALID,19.362,VALID,79.0,VALID,0.576,
2018-04-29, 02:38:06,VALID,917.769,VALID,0.0,VALID,97.82,VALID,0.008,VALID,19.378,VALID,84.0,VALID,0.528,
2018-04-29, 02:39:06,VALID,917.775,VALID,0.0,VALID,97.759,VALID,-0.002,VALID,19.335,VALID,93.0,VALID,0.416,
2018-04-29, 02:40:06,VALID,917.783,VALID,0.0,VALID,97.698,VALID,-0.019,VALID,19.295,VALID,96.0,VALID,0.619,
2018-04-29, 02:41:06,VALID,917.781,VALID,0.0,VALID,97.732,VALID,-0.038,VALID,19.301,VALID,99.0,VALID,0.792,
2018-04-29, 02:42:06,VALID,917.794,VALID,0.0,VALID,97.945,VALID,-0.03,VALID,19.331,VALID,104.0,VALID,0.63,
2018-04-29, 02:43:06,VALID,917.801,VALID,0.0,VALID,97.939,VALID,-0.003,VALID,19.311,VALID,104.0,VALID,0.419,
2018-04-29, 02:44:06,VALID,917.804,VALID,0.0,VALID,97.894,VALID,-0.03,VALID,19.267,VALID,104.0,VALID,0.279,
2018-04-29, 02:45:06,VALID,917.813,VALID,0.0,VALID,97.876,VALID,-0.012,VALID,19.238,VALID,104.0,VALID,0.279,
2018-04-29, 02:46:06,VALID,917.811,VALID,0.0,VALID,97.811,VALID,-0.013,VALID,19.202,VALID,104.0,VALID,0.248,
2018-04-29, 02:47:06,VALID,917.814,VALID,0.0,VALID,97.695,VALID,-0.029,VALID,19.148,VALID,103.0,VALID,0.146,
2018-04-29, 02:48:06,VALID,917.813,VALID,0.0,VALID,97.581,VALID,-0.052,VALID,19.113,VALID,103.0,VALID,0.266,
2018-04-29, 02:49:06,VALID,917.801,VALID,0.0,VALID,97.59,VALID,-0.049,VALID,19.091,VALID,102.0,VALID,0.363,
2018-04-29, 02:50:06,VALID,917.792,VALID,0.0,VALID,97.714,VALID,-0.043,VALID,19.108,VALID,103.0,VALID,0.503,
2018-04-29, 02:51:06,VALID,917.778,VALID,0.0,VALID,98.021,VALID,-0.056,VALID,19.17,VALID,98.0,VALID,0.554,
2018-04-29, 02:52:06,VALID,917.759,VALID,0.0,VALID,98.152,VALID,-0.064,VALID,19.181,VALID,93.0,VALID,0.488,
2018-04-29, 02:53:06,VALID,917.749,VALID,0.0,VALID,98.133,VALID,-0.053,VALID,19.135,VALID,92.0,VALID,0.533,
2018-04-29, 02:54:06,VALID,917.74,VALID,0.0,VALID,98.11,VALID,-0.054,VALID,19.099,VALID,90.0,VALID,0.498,
2018-04-29, 02:55:06,VALID,917.729,VALID,0.0,VALID,98.073,VALID,-0.056,VALID,19.063,VALID,88.0,VALID,0.775,
2018-04-29, 02:56:06,VALID,917.722,VALID,0.0,VALID,98.134,VALID,-0.048,VALID,19.064,VALID,95.0,VALID,0.714,
2018-04-29, 02:57:06,VALID,917.714,VALID,0.0,VALID,98.175,VALID,-0.037,VALID,19.069,VALID,97.0,VALID,0.794,
2018-04-29, 02:58:06,VALID,917.707,VALID,0.0,VALID,98.211,VALID,-0.06,VALID,19.089,VALID,103.0,VALID,0.925,
2018-04-29, 02:59:06,VALID,917.708,VALID,0.0,VALID,98.338,VALID,-0.046,VALID,19.167,VALID,104.0,VALID,1.008,
2018-04-29, 03:00:06,VALID,917.709,VALID,0.0,VALID,98.404,VALID,-0.051,VALID,19.205,VALID,105.0,VALID,1.132,
2018-04-29, 03:01:06,VALID,917.703,VALID,0.0,VALID,98.457,VALID,-0.031,VALID,19.258,VALID,105.0,VALID,1.233,
2018-04-29, 03:02:06,VALID,917.715,VALID,0.0,VALID,98.488,VALID,-0.009,VALID,19.283,VALID,106.0,VALID,1.191,
2018-04-29, 03:03:06,VALID,917.721,VALID,0.0,VALID,98.496,VALID,0.09,VALID,19.309,VALID,106.0,VALID,1.325,
2018-04-29, 03:04:06,VALID,917.719,VALID,0.0,VALID,98.563,VALID,0.065,VALID,19.326,VALID,100.0,VALID,1.103,
2018-04-29, 03:05:06,VALID,917.707,VALID,0.0,VALID,98.357,VALID,0.063,VALID,19.224,VALID,97.0,VALID,0.916,
2018-04-29, 03:06:06,VALID,917.699,VALID,0.0,VALID,98.282,VALID,0.06,VALID,19.195,VALID,92.0,VALID,0.899,
2018-04-29, 03:07:06,VALID,917.699,VALID,0.0,VALID,98.313,VALID,0.062,VALID,19.211,VALID,91.0,VALID,1.027,
2018-04-29, 03:08:06,VALID,917.684,VALID,0.0,VALID,98.366,VALID,0.086,VALID,19.245,VALID,84.0,VALID,1.039,
2018-04-29, 03:09:06,VALID,917.677,VALID,0.0,VALID,98.438,VALID,0.081,VALID,19.286,VALID,83.0,VALID,1.075,
2018-04-29, 03:10:06,VALID,917.673,VALID,0.0,VALID,98.507,VALID,0.076,VALID,19.322,VALID,86.0,VALID,1.159,
2018-04-29, 03:11:06,VALID,917.683,VALID,0.0,VALID,98.506,VALID,0.066,VALID,19.305,VALID,89.0,VALID,1.026,
2018-04-29, 03:12:06,VALID,917.695,VALID,0.0,VALID,98.493,VALID,0.064,VALID,19.26,VALID,95.0,VALID,0.922,
2018-04-29, 03:13:06,VALID,917.695,VALID,0.0,VALID,98.589,VALID,0.07,VALID,19.287,VALID,102.0,VALID,1.029,
2018-04-29, 03:14:06,VALID,917.69,VALID,0.0,VALID,98.609,VALID,0.079,VALID,19.279,VALID,107.0,VALID,1.123,
2018-04-29, 03:15:06,VALID,917.671,VALID,0.0,VALID,98.558,VALID,0.067,VALID,19.206,VALID,103.0,VALID,1.138,
2018-04-29, 03:16:06,VALID,917.668,VALID,0.0,VALID,98.545,VALID,0.079,VALID,19.135,VALID,104.0,VALID,1.025,
2018-04-29, 03:17:06,VALID,917.662,VALID,0.0,VALID,98.535,VALID,0.043,VALID,19.062,VALID,106.0,VALID,0.882,
2018-04-29, 03:18:06,VALID,917.65,VALID,0.0,VALID,98.541,VALID,-0.057,VALID,19.014,VALID,102.0,VALID,0.865,
2018-04-29, 03:19:06,VALID,917.643,VALID,0.0,VALID,98.61,VALID,-0.053,VALID,19.024,VALID,103.0,VALID,0.839,
2018-04-29, 03:20:06,VALID,917.647,VALID,0.0,VALID,98.661,VALID,-0.052,VALID,19.045,VALID,101.0,VALID,0.678,
2018-04-29, 03:21:06,VALID,917.637,VALID,0.0,VALID,98.687,VALID,-0.051,VALID,19.038,VALID,94.0,VALID,0.598,
2018-04-29, 03:22:06,VALID,917.63,VALID,0.0,VALID,98.661,VALID,-0.058,VALID,18.999,VALID,94.0,VALID,0.54,
2018-04-29, 03:23:06,VALID,917.627,VALID,0.0,VALID,98.656,VALID,-0.052,VALID,18.954,VALID,93.0,VALID,0.625,
2018-04-29, 03:24:06,VALID,917.626,VALID,0.0,VALID,98.684,VALID,-0.055,VALID,18.946,VALID,94.0,VALID,0.806,
2018-04-29, 03:25:06,VALID,917.629,VALID,0.0,VALID,98.797,VALID,-0.062,VALID,19.005,VALID,98.0,VALID,1.12,
2018-04-29, 03:26:06,VALID,917.632,VALID,0.0,VALID,98.851,VALID,-0.054,VALID,19.088,VALID,97.0,VALID,1.209,
2018-04-29, 03:27:06,VALID,917.64,VALID,0.0,VALID,98.877,VALID,-0.058,VALID,19.152,VALID,102.0,VALID,1.351,
2018-04-29, 03:28:06,VALID,917.657,VALID,0.0,VALID,98.911,VALID,-0.065,VALID,19.214,VALID,103.0,VALID,1.449,
2018-04-29, 03:29:06,VALID,917.65,VALID,0.0,VALID,98.917,VALID,-0.061,VALID,19.228,VALID,106.0,VALID,1.468,
2018-04-29, 03:30:06,VALID,917.652,VALID,0.0,VALID,98.897,VALID,-0.053,VALID,19.237,VALID,105.0,VALID,1.472,
2018-04-29, 03:31:06,VALID,917.626,VALID,0.0,VALID,98.872,VALID,-0.05,VALID,19.21,VALID,97.0,VALID,1.221,
2018-04-29, 03:32:06,VALID,917.6,VALID,0.0,VALID,98.852,VALID,-0.04,VALID,19.163,VALID,93.0,VALID,0.987,
2018-04-29, 03:33:06,VALID,917.573,VALID,0.0,VALID,98.883,VALID,0.003,VALID,19.143,VALID,92.0,VALID,1.006,
2018-04-29, 03:34:06,VALID,917.548,VALID,0.0,VALID,98.867,VALID,0.006,VALID,19.131,VALID,94.0,VALID,1.054,
2018-04-29, 03:35:06,VALID,917.554,VALID,0.0,VALID,98.879,VALID,0.016,VALID,19.123,VALID,95.0,VALID,1.097,
2018-04-29, 03:36:06,VALID,917.549,VALID,0.0,VALID,98.882,VALID,0.007,VALID,19.093,VALID,95.0,VALID,0.838,
2018-04-29, 03:37:06,VALID,917.539,VALID,0.0,VALID,98.867,VALID,-0.012,VALID,19.051,VALID,101.0,VALID,1.043,
2018-04-29, 03:38:06,VALID,917.538,VALID,0.0,VALID,98.918,VALID,-0.012,VALID,19.068,VALID,96.0,VALID,0.976,